Hourly Data Report for September 03, 2020

LOURDES DE BLANC SABLON A
QUEBEC
Current Station Operator: NAVCAN

51°26'31.000" N
57°11'10.000" W
37.20 m
7040815
71808
YBX

Download Data

Hourly Data (September 2020)
Hourly Data Report for September 3, 2020
TIME Temp Definition
°C
Dew Point Definition
°C
Rel Hum Definition
%
Wind Dir Definition
10's deg

Wind Spd Definition
km/h
Visibility Definition
km
Stn Press Definition
kPa
Hmdx Definition


Wind Chill Definition


Weather Definition


00:00 14.2 11.5 84 22 38 24.1 100.90     LegendNANA
01:00 14.0 10.9 82 22 38 24.1 100.81     LegendNANA
02:00 13.9 11.3 85 21 32 24.1 100.70     Mostly Cloudy
03:00 13.8 10.4 80 22 44 24.1 100.62     LegendNANA
04:00 14.1 11.1 82 21 45 24.1 100.52     LegendNANA
05:00 14.4 11.6 83 22 40 24.1 100.45     Mostly Cloudy
06:00 14.6 11.5 82 21 36 24.1 100.38     LegendNANA
07:00 14.9 11.3 79 20 30 24.1 100.23     LegendNANA
08:00 15.0 11.1 77 22 41 24.1 100.19     Rain
09:00 13.7 12.5 93 21 49 4.0 100.16     Rain,Fog
10:00 13.7 13.0 96 21 44 2.8 100.09     Rain,Fog
11:00 14.2 13.7 97 21 46 2.8 100.03     Rain,Fog
12:00 14.5 14.2 98 22 47 2.4 100.03     Rain,Fog
13:00 14.4 14.0 97 22 43 4.0 99.99     Rain,Fog
14:00 14.2 13.8 98 24 35 2.8 100.03     Drizzle,Fog
15:00 14.2 13.9 98 23 30 2.8 100.07     Drizzle,Fog
16:00 13.8 13.6 98 23 31 0.8 100.13     Drizzle,Fog
17:00 13.3 13.2 99 27 13 0.2 100.24     Drizzle,Fog
18:00 12.9 12.9 100 25 21 0.2 100.29     Drizzle,Fog
19:00 13.1 13.1 100 24 18 4.8 100.37     Drizzle,Fog
20:00 13.1 13.0 99 15 8 8.1 100.46     Fog
21:00 12.7 12.5 99 21 13 9.7 100.53     Fog
22:00 12.7 12.4 98 21 16 12.9 100.61     LegendNANA
23:00 12.9 12.8 99 23 9 4.8 100.66     Fog

Notes on Data Quality.

Legend

  • E = Estimated
  • M = Missing
  • NA = Not Available*
  • [empty] = Indicates an unobserved value
Date modified: